User: anonymous   Login
Location: Capvern
(43.1036°N, 0.3160°E)
Time: 01:15:35
(UTC+00:00)
Language:

Okean-O - Orbit

View from above orbital plane
View from above orbital plane
View from above satellite
View from above satellite

Ground track
Ground track

The orbit data is extracted from the following two-line orbital elements,

1 25860U 99039A   22020.55421473  .00000229  00000-0  40114-4 0  9995
2 25860  98.1597  58.9902 0001548 111.0470 249.0905 14.76813380211427
Epoch (UTC): 20 January 2022 13:18:04
Eccentricity: 0.0001548
inclination: 98.1597°
perigee height: 638 km
apogee height: 640 km
right ascension of ascending node: 58.9902°
argument of perigee: 111.0470°
revolutions per day: 14.76813380
mean anomaly at epoch: 249.0905°
orbit number at epoch: 21142

The dashed part of the orbit path shows where the satellite is in the earth's shadow,  

DLR